GW3945 Weather Reports


Display with metric or nautical units.
time (UTC)temp
F
wind
direction
speed
MPH
gust
MPH
rain 1hr
in
rain 24hr
in
rain mn
in
humidity
%
barometer
mb
20260510054455 56 183 0.0 0.0 0.00 0.00 0.00 87 1011.5
20260510053950 58 188 0.0 0.0 0.00 0.00 0.00 85 1011.4
20260510053446 58 188 0.0 0.0 0.00 0.00 0.00 84 1011.4
20260510052942 58 188 0.0 0.0 0.00 0.00 0.00 84 1011.4
20260510052438 58 188 0.0 0.0 0.00 0.00 0.00 84 1011.3
20260510051935 59 189 0.0 0.0 0.00 0.00 0.00 84 1011.4
20260510051431 59 187 0.0 0.0 0.00 0.00 0.00 82 1011.3
20260510050927 59 188 0.0 0.0 0.00 0.00 0.00 81 1011.4
20260510050424 59 199 0.0 0.0 0.00 0.00 0.00 83 1011.2
20260510045922 59 189 0.0 0.0 0.00 0.00 0.00 82 1011.4
20260510045419 59 189 0.0 0.0 0.00 0.00 0.00 79 1011.1
20260510044915 58 190 0.0 0.0 0.00 0.00 0.00 81 1011.3
20260510044412 59 187 0.0 0.0 0.00 0.00 0.00 84 1011.3
20260510043909 59 187 0.0 0.0 0.00 0.00 0.00 84 1011.3
20260510043405 59 187 0.0 0.0 0.00 0.00 0.00 82 1011.2
20260510042903 59 187 0.0 0.0 0.00 0.00 0.00 82 1011.2
20260510042359 59 187 0.0 0.0 0.00 0.00 0.00 83 1011.3
20260510041855 59 187 0.0 0.0 0.00 0.00 0.00 84 1011.1
20260510041352 59 187 0.0 0.0 0.00 0.00 0.00 83 1011.3
20260510040849 59 187 0.0 0.0 0.00 0.00 0.00 83 1011.3
20260510040346 59 190 0.0 0.0 0.00 0.00 0.00 83 1011.3
20260510035842 60 184 0.0 0.0 0.00 0.00 0.00 83 1011.4
20260510035338 60 184 0.0 0.0 0.00 0.00 0.00 83 1011.4
20260510034833 60 184 0.0 0.0 0.00 0.00 0.00 82 1011.2
20260510034332 60 184 0.0 0.0 0.00 0.00 0.00 82 1011.2
20260510033828 60 184 0.0 0.0 0.00 0.00 0.00 82 1011.4
20260510033325 60 185 0.0 0.0 0.00 0.00 0.00 81 1011.3
20260510032821 60 186 0.0 0.0 0.00 0.00 0.00 82 1011.5
20260510032318 60 186 0.0 0.0 0.00 0.00 0.00 82 1011.3
20260510031814 60 187 0.0 0.0 0.00 0.00 0.00 82 1011.2
20260510031309 61 186 0.0 0.0 0.00 0.00 0.00 80 1011.4
20260510030803 61 185 0.0 0.0 0.00 0.00 0.00 79 1011.0
20260510030300 61 185 0.0 0.0 0.00 0.00 0.00 77 1011.1
20260510025758 61 212 0.0 0.0 0.00 0.00 0.00 78 1010.9
20260510025255 61 183 0.0 0.0 0.00 0.00 0.00 80 1010.9
20260510024751 61 183 0.0 0.0 0.00 0.00 0.00 79 1010.9
20260510024248 62 184 0.0 0.0 0.00 0.00 0.00 79 1010.8
20260510023744 62 186 0.0 0.0 0.00 0.00 0.00 79 1010.9
20260510023241 62 185 0.0 0.0 0.00 0.00 0.00 78 1010.8
20260510022738 62 185 0.0 0.0 0.00 0.00 0.00 78 1010.9
20260510022237 62 185 0.0 0.0 0.00 0.00 0.00 78 1010.7
20260510021732 63 185 0.0 0.0 0.00 0.00 0.00 76 1010.6
20260510021230 63 193 0.0 0.0 0.00 0.00 0.00 74 1010.7
20260510020731 63 187 0.0 0.0 0.00 0.00 0.00 73 1010.8
20260510020226 64 185 0.0 0.0 0.00 0.00 0.00 75 1010.6
20260510015722 64 185 0.0 0.0 0.00 0.00 0.00 74 1010.3
20260510015218 64 184 0.0 0.0 0.00 0.00 0.00 73 1010.4
20260510014713 64 186 0.0 0.0 0.00 0.00 0.00 71 1010.3
20260510014211 64 184 0.0 0.0 0.00 0.00 0.00 73 1010.3
20260510013706 65 184 0.0 0.0 0.00 0.00 0.00 73 1010.1
20260510013202 65 184 0.0 0.0 0.00 0.00 0.00 72 1010.1
20260510012702 66 183 0.0 0.0 0.00 0.00 0.00 71 1010.1
20260510012157 66 183 0.0 0.0 0.00 0.00 0.00 69 1010.0
20260510011652 66 183 0.0 0.0 0.00 0.00 0.00 68 1009.8
20260510011148 67 183 0.0 0.0 0.00 0.00 0.00 65 1010.0
20260510010644 67 183 0.0 0.0 0.00 0.00 0.00 64 1009.9
20260510010142 68 183 0.0 0.0 0.00 0.00 0.00 65 1009.9
20260510005637 68 183 0.0 0.0 0.00 0.00 0.00 63 1009.8
20260510005134 69 183 0.0 0.0 0.00 0.00 0.00 61 1009.7
20260510004633 69 184 0.0 0.0 0.00 0.00 0.00 60 1009.7
20260510004131 69 183 0.0 0.0 0.00 0.00 0.00 58 1009.6
20260510003628 70 183 0.0 0.0 0.00 0.00 0.00 59 1009.5
20260510003123 71 183 0.0 0.0 0.00 0.00 0.00 56 1009.4
20260510002618 71 183 0.0 0.0 0.00 0.00 0.00 54 1009.7
20260510002115 71 185 0.0 0.0 0.00 0.00 0.00 53 1009.3
20260510001612 72 183 0.0 0.0 0.00 0.00 0.00 53 1009.4
20260510001111 72 182 0.0 0.0 0.00 0.00 0.00 53 1009.4
20260510000611 72 183 0.0 0.0 0.00 0.00 0.00 51 1009.6
20260510000108 73 182 0.0 0.0 0.00 0.00 0.00 49 1009.6
20260509235604 73 182 0.0 0.0 0.00 0.00 0.00 48 1009.4
20260509235102 74 182 0.0 0.0 0.00 0.00 0.00 46 1009.1
20260509234557 74 182 0.0 0.0 0.00 0.00 0.00 46 1009.2
20260509234055 74 180 0.0 0.0 0.00 0.00 0.00 46 1009.2
20260509233553 74 190 0.0 0.0 0.00 0.00 0.00 45 1009.4
20260509233050 74 204 0.0 0.0 0.00 0.00 0.00 44 1009.4
20260509232546 75 216 0.0 0.0 0.00 0.00 0.00 46 1009.3
20260509232043 75 180 0.0 0.0 0.00 0.00 0.00 45 1009.5
20260509231539 75 181 0.0 0.0 0.00 0.00 0.00 44 1009.4
20260509231038 75 178 0.0 0.0 0.00 0.00 0.00 47 1009.5
20260509230534 75 179 0.0 0.0 0.00 0.00 0.00 45 1009.1
20260509230031 76 176 0.0 0.0 0.00 0.00 0.00 45 1009.1
20260509225526 76 176 0.0 0.0 0.00 0.00 0.00 47 1009.2
20260509225022 78 197 0.0 0.0 0.00 0.00 0.00 42 1009.0
20260509224518 78 187 0.0 0.0 0.00 0.00 0.00 42 1008.9
20260509224015 80 255 1.0 2.0 0.00 0.00 0.00 40 1009.2
20260509223512 79 221 0.0 0.0 0.00 0.00 0.00 39 1009.2
20260509223010 79 186 0.0 0.0 0.00 0.00 0.00 42 1009.2
20260509222505 79 186 0.0 0.0 0.00 0.00 0.00 43 1009.3
20260509222001 78 180 0.0 0.0 0.00 0.00 0.00 42 1009.2
20260509221457 78 177 0.0 0.0 0.00 0.00 0.00 41 1009.1
20260509220953 79 214 0.0 0.0 0.00 0.00 0.00 40 1009.1
20260509220449 78 202 0.0 0.0 0.00 0.00 0.00 43 1009.2
20260509215945 78 183 0.0 0.0 0.00 0.00 0.00 41 1009.0
20260509215441 78 201 0.0 0.0 0.00 0.00 0.00 41 1009.0
20260509214939 78 174 0.0 0.0 0.00 0.00 0.00 43 1008.9
20260509214436 79 335 0.0 0.0 0.00 0.00 0.00 43 1008.6
20260509213932 80 185 0.0 0.0 0.00 0.00 0.00 43 1008.9
20260509213428 80 203 0.0 0.0 0.00 0.00 0.00 41 1008.8
20260509212926 78 193 0.0 0.0 0.00 0.00 0.00 44 1008.8
20260509212423 80 184 0.0 0.0 0.00 0.00 0.00 42 1008.9
20260509211919 79 221 0.0 0.0 0.00 0.00 0.00 43 1008.8
20260509211415 79 179 0.0 0.0 0.00 0.00 0.00 44 1008.5
20260509210911 79 192 0.0 0.0 0.00 0.00 0.00 47 1008.4
20260509210409 77 218 0.0 0.0 0.00 0.00 0.00 46 1008.6
20260509205904 77 178 0.0 0.0 0.00 0.00 0.00 49 1008.6
20260509205403 77 198 0.0 0.0 0.00 0.00 0.00 46 1008.5
20260509204900 77 181 0.0 0.0 0.00 0.00 0.00 46 1008.8
20260509204356 76 178 0.0 0.0 0.00 0.00 0.00 49 1008.4
20260509203853 76 194 0.0 0.0 0.00 0.00 0.00 48 1008.8
20260509203349 76 183 0.0 0.0 0.00 0.00 0.00 49 1008.8
20260509202847 76 198 0.0 1.0 0.00 0.00 0.00 46 1008.8
20260509202342 76 209 0.0 0.0 0.00 0.00 0.00 53 1008.9
20260509201837 75 169 0.0 0.0 0.00 0.00 0.00 54 1008.8
20260509201333 75 177 0.0 0.0 0.00 0.00 0.00 51 1009.1
20260509200830 76 165 0.0 0.0 0.00 0.00 0.00 51 1008.9
20260509200326 76 204 0.0 1.0 0.00 0.00 0.00 49 1009.1
20260509195823 75 181 0.0 0.0 0.00 0.00 0.00 57 1009.1
20260509195322 75 175 0.0 0.0 0.00 0.00 0.00 54 1009.3
20260509194822 75 270 3.0 3.0 0.00 0.00 0.00 51 1009.4
20260509194319 75 172 0.0 0.0 0.00 0.00 0.00 52 1009.3
20260509193815 75 203 0.0 0.0 0.00 0.00 0.00 55 1009.4
20260509193315 74 186 0.0 1.0 0.00 0.00 0.00 53 1009.6
20260509192812 74 203 0.0 0.0 0.00 0.00 0.00 54 1009.5
20260509192308 74 180 0.0 0.0 0.00 0.00 0.00 58 1009.3
20260509191803 74 252 0.0 0.0 0.00 0.00 0.00 56 1009.4
20260509191259 73 243 0.0 0.0 0.00 0.00 0.00 59 1009.5
20260509190755 72 180 0.0 0.0 0.00 0.00 0.00 59 1009.5
20260509190253 73 170 0.0 0.0 0.00 0.00 0.00 58 1009.4
20260509185750 73 184 0.0 0.0 0.00 0.00 0.00 58 1009.4
20260509185246 73 168 0.0 0.0 0.00 0.00 0.00 57 1009.5
20260509184743 74 209 1.0 2.0 0.00 0.00 0.00 57 1009.4
20260509184241 73 182 0.0 0.0 0.00 0.00 0.00 58 1009.3
20260509183737 72 187 0.0 0.0 0.00 0.00 0.00 61 1009.2
20260509183232 72 163 0.0 0.0 0.00 0.00 0.00 59 1009.2
20260509182728 71 182 0.0 0.0 0.00 0.00 0.00 62 1009.3
20260509182226 72 251 1.0 3.0 0.00 0.00 0.00 61 1009.1
20260509181723 72 274 0.0 0.0 0.00 0.00 0.00 61 1009.2
20260509181220 72 260 0.0 0.0 0.00 0.00 0.00 59 1009.0
20260509180717 72 175 0.0 0.0 0.00 0.00 0.00 59 1009.1
20260509180213 72 282 0.0 0.0 0.00 0.00 0.00 60 1009.3
20260509175710 71 198 0.0 0.0 0.00 0.00 0.00 61 1009.0
20260509175207 72 204 0.0 0.0 0.00 0.00 0.00 63 1009.0
20260509174702 71 259 2.0 2.0 0.00 0.00 0.00 62 1009.1
20260509174157 71 162 0.0 0.0 0.00 0.00 0.00 66 1009.2
20260509173654 70 196 0.0 0.0 0.00 0.00 0.00 62 1008.9
20260509173149 70 260 3.0 3.0 0.00 0.00 0.00 65 1009.1
20260509172646 70 179 0.0 0.0 0.00 0.00 0.00 65 1009.4
20260509172142 70 286 2.0 3.0 0.00 0.00 0.00 63 1009.6
20260509171638 70 258 1.0 1.0 0.00 0.00 0.00 62 1009.2
20260509171134 70 185 0.0 0.0 0.00 0.00 0.00 65 1009.5
20260509170631 69 172 0.0 0.0 0.00 0.00 0.00 68 1009.5
20260509170127 69 207 0.0 0.0 0.00 0.00 0.00 69 1009.5
20260509165625 69 187 0.0 0.0 0.00 0.00 0.00 68 1009.7
20260509165121 69 161 0.0 0.0 0.00 0.00 0.00 68 1009.7
20260509164617 68 147 0.0 0.0 0.00 0.00 0.00 68 1009.4
20260509164113 68 261 0.0 1.0 0.00 0.00 0.00 67 1009.6
20260509163611 69 188 0.0 0.0 0.00 0.00 0.00 69 1009.5
20260509163107 68 205 1.0 1.0 0.00 0.00 0.00 69 1009.5
20260509162604 68 197 0.0 0.0 0.00 0.00 0.00 72 1009.4
20260509162100 68 217 0.0 0.0 0.00 0.00 0.00 71 1009.6
20260509161556 68 84 0.0 1.0 0.00 0.00 0.00 70 1009.6
20260509161051 68 179 0.0 0.0 0.00 0.00 0.00 71 1009.6
20260509160547 68 183 0.0 0.0 0.00 0.00 0.00 73 1009.5
20260509160042 68 196 0.0 0.0 0.00 0.00 0.00 74 1009.6
20260509155539 68 219 0.0 0.0 0.00 0.00 0.00 74 1009.6
20260509155035 68 176 0.0 0.0 0.00 0.00 0.00 74 1009.3
20260509154531 67 140 0.0 0.0 0.00 0.00 0.00 74 1009.5
20260509154029 67 179 0.0 0.0 0.00 0.00 0.00 77 1009.5
20260509153526 66 206 0.0 1.0 0.00 0.00 0.00 76 1009.4
20260509153023 66 284 2.0 3.0 0.00 0.00 0.00 77 1009.3
20260509152518 66 187 0.0 0.0 0.00 0.00 0.00 78 1009.3
20260509152015 65 205 0.0 0.0 0.00 0.00 0.00 78 1009.3
20260509151512 65 256 0.0 0.0 0.00 0.00 0.00 80 1009.2
20260509151010 65 218 0.0 0.0 0.00 0.00 0.00 79 1009.3
20260509150507 64 212 1.0 1.0 0.00 0.00 0.00 79 1009.2
20260509150006 64 175 0.0 0.0 0.00 0.00 0.00 81 1009.3
20260509145501 63 148 0.0 0.0 0.00 0.00 0.00 82 1009.3
20260509144955 63 225 0.0 0.0 0.00 0.00 0.00 82 1009.2
20260509144453 63 175 0.0 1.0 0.00 0.00 0.00 83 1009.0
20260509143950 62 235 0.0 1.0 0.00 0.00 0.00 83 1009.1
20260509143447 63 225 1.0 2.0 0.00 0.00 0.00 83 1009.1
20260509142944 62 214 0.0 1.0 0.00 0.00 0.00 84 1009.1
20260509142440 62 180 0.0 0.0 0.00 0.00 0.00 84 1009.3
20260509141935 62 248 0.0 0.0 0.00 0.00 0.00 84 1009.2
20260509141432 62 204 0.0 0.0 0.00 0.00 0.00 85 1008.9
20260509140929 61 183 0.0 0.0 0.00 0.00 0.00 86 1008.9
20260509140425 61 180 0.0 0.0 0.00 0.00 0.00 86 1009.2
20260509135924 61 184 0.0 0.0 0.00 0.00 0.00 87 1009.1
20260509135421 61 222 0.0 0.0 0.00 0.00 0.00 87 1009.1
20260509134918 60 199 0.0 0.0 0.00 0.00 0.00 87 1008.9
20260509134416 60 229 4.0 7.0 0.00 0.00 0.00 87 1008.8
20260509133913 60 176 1.0 2.0 0.00 0.00 0.00 87 1008.9
20260509133409 60 169 0.0 0.0 0.00 0.00 0.00 88 1008.6
20260509132908 60 168 0.0 0.0 0.00 0.00 0.00 88 1008.9
20260509132406 59 179 0.0 0.0 0.00 0.00 0.00 88 1008.5
20260509131903 59 170 0.0 0.0 0.00 0.00 0.00 88 1008.8
20260509131359 59 172 0.0 0.0 0.00 0.00 0.00 88 1008.5
20260509130856 58 165 0.0 0.0 0.00 0.00 0.00 89 1008.8
20260509130351 58 181 0.0 0.0 0.00 0.00 0.00 89 1008.6
20260509125849 57 223 0.0 0.0 0.00 0.00 0.00 90 1008.5
20260509125345 57 183 0.0 0.0 0.00 0.00 0.00 90 1009.0
20260509124841 57 188 0.0 0.0 0.00 0.00 0.00 91 1009.1
20260509124338 56 168 0.0 0.0 0.00 0.00 0.00 91 1008.5
20260509123836 56 180 0.0 0.0 0.00 0.00 0.00 92 1008.9
20260509123333 55 172 0.0 0.0 0.00 0.00 0.00 92 1009.1
20260509122829 55 173 0.0 0.0 0.00 0.00 0.00 92 1008.6
20260509122326 55 172 0.0 0.0 0.00 0.00 0.00 92 1009.0
20260509121823 55 173 0.0 0.0 0.00 0.00 0.00 92 1008.5
20260509121320 55 169 0.0 0.0 0.00 0.00 0.00 92 1008.5
20260509120818 55 175 0.0 0.0 0.00 0.00 0.00 92 1008.3
20260509120316 54 177 0.0 0.0 0.00 0.00 0.00 92 1008.3
20260509115814 54 177 0.0 0.0 0.00 0.00 0.00 92 1007.9
20260509115311 54 177 0.0 0.0 0.00 0.00 0.00 92 1008.0
20260509114809 54 177 0.0 0.0 0.00 0.00 0.00 92 1007.9
20260509114307 54 176 0.0 0.0 0.00 0.00 0.00 92 1007.8
20260509113806 54 176 0.0 0.0 0.00 0.00 0.00 92 1007.6
20260509113302 54 176 0.0 0.0 0.00 0.00 0.00 92 1007.8
20260509112759 54 176 0.0 0.0 0.00 0.00 0.00 92 1007.7
20260509112256 54 177 0.0 0.0 0.00 0.00 0.00 92 1007.7
20260509111753 54 177 0.0 0.0 0.00 0.00 0.00 91 1007.7
20260509111250 54 171 0.0 0.0 0.00 0.00 0.00 91 1007.7
20260509110747 54 172 0.0 0.0 0.00 0.00 0.00 91 1007.9
20260509110243 54 171 0.0 0.0 0.00 0.00 0.00 90 1007.7
20260509105742 55 172 0.0 0.0 0.00 0.00 0.00 90 1007.5
20260509105239 55 178 0.0 0.0 0.00 0.00 0.00 90 1007.7
20260509104736 54 176 0.0 0.0 0.00 0.00 0.00 90 1007.8
20260509104233 54 179 0.0 0.0 0.00 0.00 0.00 90 1007.5
20260509103731 54 186 0.0 0.0 0.00 0.00 0.00 90 1007.6
20260509103228 54 173 0.0 0.0 0.00 0.00 0.00 90 1007.6
20260509102726 54 174 0.0 0.0 0.00 0.00 0.00 89 1007.3
20260509102223 55 173 0.0 0.0 0.00 0.00 0.00 89 1007.4
20260509101719 55 173 0.0 0.0 0.00 0.00 0.00 88 1007.5
20260509101215 55 175 0.0 0.0 0.00 0.00 0.00 88 1007.8
20260509100713 54 172 0.0 0.0 0.00 0.00 0.00 89 1007.7
20260509100210 55 173 0.0 0.0 0.00 0.00 0.00 89 1007.4
20260509095707 55 174 0.0 0.0 0.00 0.00 0.00 88 1007.7
20260509095204 55 174 0.0 0.0 0.00 0.00 0.00 87 1007.9
20260509094701 55 175 0.0 0.0 0.00 0.00 0.00 87 1008.1
20260509094158 55 173 0.0 0.0 0.00 0.00 0.00 87 1007.9
20260509093656 56 173 0.0 0.0 0.00 0.00 0.00 86 1007.9
20260509093153 56 172 0.0 0.0 0.00 0.00 0.00 86 1008.3
20260509092651 56 182 0.0 0.0 0.00 0.00 0.00 86 1008.1
20260509092149 56 174 0.0 0.0 0.00 0.00 0.00 86 1008.3
20260509091647 56 172 0.0 0.0 0.00 0.00 0.00 85 1008.3
20260509091143 56 173 0.0 0.0 0.00 0.00 0.00 85 1008.0
20260509090641 56 172 0.0 0.0 0.00 0.00 0.00 85 1008.3
20260509090138 56 176 0.0 0.0 0.00 0.00 0.00 85 1008.1
20260509085635 56 176 0.0 0.0 0.00 0.00 0.00 85 1008.0
20260509085131 56 177 0.0 0.0 0.00 0.00 0.00 85 1008.3
20260509084629 56 178 0.0 0.0 0.00 0.00 0.00 85 1008.1
20260509084126 56 177 0.0 0.0 0.00 0.00 0.00 84 1007.8
20260509083623 56 177 0.0 0.0 0.00 0.00 0.00 84 1008.3
20260509083119 56 176 0.0 0.0 0.00 0.00 0.00 84 1008.5
20260509082617 56 181 0.0 0.0 0.00 0.00 0.00 84 1008.3
20260509082113 56 187 0.0 0.0 0.00 0.00 0.00 84 1008.5
20260509081610 56 178 0.0 0.0 0.00 0.00 0.00 84 1008.2
20260509081107 56 178 0.0 0.0 0.00 0.00 0.00 84 1008.3
20260509080606 56 199 0.0 0.0 0.00 0.00 0.00 84 1008.4
20260509080103 56 175 0.0 0.0 0.00 0.00 0.00 84 1008.2
20260509075601 57 175 0.0 0.0 0.00 0.00 0.00 84 1008.0
20260509075059 56 180 0.0 0.0 0.00 0.00 0.00 82 1007.9
20260509074555 56 179 0.0 0.0 0.00 0.00 0.00 82 1008.1
20260509074051 56 179 0.0 0.0 0.00 0.00 0.00 82 1008.3
20260509073548 57 179 0.0 0.0 0.00 0.00 0.00 82 1008.2
20260509073045 57 179 0.0 0.0 0.00 0.00 0.00 81 1008.5
20260509072541 57 184 0.0 0.0 0.00 0.00 0.00 81 1008.1
20260509072038 57 179 0.0 0.0 0.00 0.00 0.00 81 1008.1
20260509071535 57 176 0.0 0.0 0.00 0.00 0.00 80 1008.1
20260509071033 57 176 0.0 0.0 0.00 0.00 0.00 80 1008.1
20260509070530 57 176 0.0 0.0 0.00 0.00 0.00 80 1008.0
20260509070026 57 175 0.0 0.0 0.00 0.00 0.00 79 1008.0
20260509065521 57 174 0.0 0.0 0.00 0.00 0.00 79 1008.4
20260509065018 57 174 0.0 0.0 0.00 0.00 0.00 78 1008.5
20260509064515 57 174 0.0 0.0 0.00 0.00 0.00 78 1008.6
20260509064013 58 173 0.0 0.0 0.00 0.00 0.00 77 1008.3
20260509063508 58 175 0.0 0.0 0.00 0.00 0.00 77 1008.5
20260509063006 58 169 0.0 0.0 0.00 0.00 0.00 77 1008.4
20260509062503 57 173 0.0 0.0 0.00 0.00 0.00 77 1008.9
20260509062001 58 172 0.0 0.0 0.00 0.00 0.00 76 1008.6
20260509061457 58 162 0.0 0.0 0.00 0.00 0.00 75 1008.9
20260509060954 58 176 0.0 0.0 0.00 0.00 0.00 76 1008.9
20260509060452 58 161 2.0 2.0 0.00 0.00 0.00 75 1008.8
20260509055947 58 172 0.0 0.0 0.00 0.00 0.00 74 1009.1
20260509055442 58 172 0.0 0.0 0.00 0.00 0.00 74 1009.1
20260509054939 58 176 0.0 0.0 0.00 0.00 0.00 74 1009.0